Weather History for Bartlesville, OK

Change the Weather History Date:

Monday, January 30, 2012

  Actual Average Record
Temperature  
Mean Temperature 47 °F -  
Max Temperature 66 °F 50 °F 50 °F (2014)
Min Temperature 28 °F 24 °F 26 °F (2014)
Degree Days  
Heating Degree Days 18    
Moisture  
Dew Point 36 °F    
Average Humidity 59    
Maximum Humidity 85    
Minimum Humidity 34    
Precipitation  
Precipitation 0.00 in - - ()
Sea Level Pressure  
Sea Level Pressure 30.03 in    
Wind  
Wind Speed 9 mph (South)    
Max Wind Speed 17 mph    
Max Gust Speed 28 mph    
Visibility 10 miles    
Events      
Averages and records for this station are not official NWS values.
T = Trace of Precipitation, MM = Missing Value Source: NWS Daily Summary

Daily Weather History Graph

Daily Weather History Graph

Search for Another Location

Airport:

Trip Planner

Search our weather history database for the weather conditions in past years. The results will help you decide how hot, cold, wet, or windy it might be!

Date:

Astronomy

Jan. 30, 2012 Rise Set
Actual Time 7:28 AM CST 5:46 PM CST
Civil Twilight 7:00 AM CST 6:14 PM CST
Nautical Twilight 6:29 AM CST 6:45 PM CST
Astronomical Twilight 5:59 AM CST 7:16 PM CST
Moon 11:04 AM CST (1/30) 12:19 AM CST (1/30)
Length of Visible Light 11h 13m
Length of Day
10h 18m
Waxing Crescent, 46% of the Moon is Illuminated
Jan 30
Waxing Crescent
Jan 30
First Quarter
Feb 7
Full
Feb 14
Last Quarter
Feb 21
New

Hourly Weather History & Observations

Time (CST) Temp. Windchill Dew Point Humidity Pressure Visibility Wind Dir Wind Speed Gust Speed Precip Events Conditions
12:53 AM 44.1 °F 39.0 °F 28.9 °F 55% 30.16 in 10.0 mi South 9.2 mph - N/A   Clear
1:53 AM 44.1 °F 39.0 °F 28.9 °F 55% 30.14 in 10.0 mi SSW 9.2 mph - N/A   Clear
2:53 AM 42.1 °F 37.7 °F 28.0 °F 58% 30.13 in 10.0 mi South 6.9 mph - N/A   Clear
3:53 AM 34.0 °F 31.0 °F 26.1 °F 73% 30.12 in 10.0 mi SSE 3.5 mph - N/A   Clear
4:53 AM 32.0 °F 27.5 °F 26.1 °F 79% 30.11 in 10.0 mi South 4.6 mph - N/A   Clear
5:53 AM 28.9 °F - 25.0 °F 85% 30.10 in 10.0 mi Calm Calm - N/A   Clear
6:53 AM 28.9 °F - 25.0 °F 85% 30.11 in 10.0 mi Calm Calm - N/A   Clear
7:53 AM 35.1 °F 30.1 °F 28.9 °F 78% 30.10 in 10.0 mi South 5.8 mph - N/A   Clear
8:53 AM 42.1 °F 38.4 °F 32.0 °F 67% 30.11 in 10.0 mi SSE 5.8 mph - N/A   Clear
9:53 AM 54.0 °F - 35.1 °F 49% 30.09 in 10.0 mi SSW 11.5 mph 20.7 mph N/A   Clear
11:53 AM 62.1 °F - 36.0 °F 38% 30.05 in 10.0 mi SSW 15.0 mph 20.7 mph N/A   Clear
12:53 PM 64.9 °F - 36.0 °F 34% 30.01 in 10.0 mi SSW 15.0 mph 21.9 mph N/A   Clear
2:53 PM 66.9 °F - 39.9 °F 37% 29.94 in 10.0 mi SSW 16.1 mph 25.3 mph N/A   Clear
3:53 PM 66.0 °F - 41.0 °F 40% 29.94 in 10.0 mi SSW 17.3 mph 27.6 mph N/A   Clear
4:53 PM 64.9 °F - 42.1 °F 43% 29.93 in 10.0 mi South 13.8 mph 20.7 mph N/A   Clear
5:53 PM 62.1 °F - 42.1 °F 48% 29.94 in 10.0 mi South 9.2 mph - N/A   Clear
6:53 PM 62.1 °F - 43.0 °F 50% 29.94 in 10.0 mi South 13.8 mph 20.7 mph N/A   Clear
7:53 PM 60.1 °F - 43.0 °F 53% 29.95 in 10.0 mi South 13.8 mph 21.9 mph N/A   Clear
9:53 PM 57.9 °F - 46.0 °F 65% 29.96 in 10.0 mi South 11.5 mph - N/A   Clear
10:53 PM 55.9 °F - 48.0 °F 75% 29.95 in 10.0 mi South 10.4 mph 18.4 mph N/A   Clear
11:53 PM 55.9 °F - 48.9 °F 77% 29.94 in 10.0 mi South 11.5 mph - N/A   Partly Cloudy